Regional Weather Roundup
Issued by NWS

Home | Current Version | Previous Version | Graphics & Text | Print | Product List | Glossary On
Versions: 1 2 3 4 5 6 7 8 9 10 11 12 13 14 15 16 17 18 19 20 21 22 23 24 25 26 27 28 29 30 31 32 33 34 35 36 37 38 39 40 41 42 43 44 45 46 47 48 49 50
000
ASUS43 KBIS 070002
RWRND

NORTH DAKOTA REGIONAL WEATHER ROUNDUP
NATIONAL WEATHER SERVICE BISMARCK ND
600 PM CST SAT FEB 06 2016

NOTE: "FAIR" INDICATES FEW OR NO CLOUDS BELOW 12,000 FEET WITH NO
SIGNIFICANT WEATHER AND/OR OBSTRUCTIONS TO VISIBILITY.


NDZ001>003-009>011-017-070100-
NORTHWEST NORTH DAKOTA

CITY           SKY/WX    TMP DP  RH WIND       PRES   REMARKS
WILLISTON      CLOUDY    41  31  67 NW31G39   29.69R
6HR MIN TEMP:  41; 6HR MAX TEMP:  49;

MINOT          MOCLDY    48  26  42 W23G33    29.56S
$$

NDZ018>021-031>035-040>046-070100-
SOUTHWEST NORTH DAKOTA

CITY           SKY/WX    TMP DP  RH WIND       PRES   REMARKS
BISMARCK       PTCLDY    50  24  36 W12       29.70R
6HR MIN TEMP:  47; 6HR MAX TEMP:  54; 6HR PCP: TRACE;

DICKINSON      MOCLDY    43  18  36 W37G53    29.72R
GARRISON         N/A     45  23  42 W23G31    29.62S
6HR MIN TEMP:  43; 6HR MAX TEMP:  51;

HETTINGER ARPT PTCLDY    42  20  41 W20G31    29.81R
$$

NDZ004>008-012>016-024-026-027-054-070100-
NORTHEAST NORTH DAKOTA

CITY           SKY/WX    TMP DP  RH WIND       PRES   REMARKS
GRAND FORKS    CLOUDY    40  31  70 SW13      29.57F
DEVILS LAKE    CLOUDY    41  31  67 W18       29.55F
$$

NDZ022-023-025-028>030-036>039-047>053-070100-
SOUTHEAST NORTH DAKOTA

CITY           SKY/WX    TMP DP  RH WIND       PRES   REMARKS
FARGO          CLOUDY    39  31  72 SW16      29.67R
6HR MIN TEMP:  35; 6HR MAX TEMP:  39; 6HR PCP: TRACE;

JAMESTOWN      CLOUDY    39  33  79 W9        29.65F
$$




USA.gov is the U.S. government's official web portal to all federal, state and local government web resources and services.